YT1XN-8 Weather Reports


time (UTC)temp
C
wind
direction
speed
KPH
gust
KPH
rain 1hr
cm
rain 24hr
cm
rain mn
cm
humidity
%
barometer
mb
20260505071139 17 204 1.6 6.4 0.00 0.00 0.00 62 1015.9
20260505071040 17 240 4.8 6.4 0.00 0.00 0.00 61 1015.9
20260505070039 17 253 4.8 8.0 0.00 0.00 0.00 61 1016.1
20260505065042 16 226 3.2 8.0 0.00 0.00 0.00 65 1016.1
20260505064939 16 236 0.0 8.0 0.00 0.00 0.00 65 1016.0
20260505064040 16 160 0.0 4.8 0.00 0.00 0.00 64 1016.0
20260505063839 16 129 3.2 4.8 0.00 0.00 0.00 63 1016.0
20260505063040 15 136 3.2 6.4 0.00 0.00 0.00 65 1016.0
20260505062739 15 157 3.2 4.8 0.00 0.00 0.00 66 1015.9
20260505062040 14 105 1.6 4.8 0.00 0.00 0.00 67 1015.9
20260505061639 13 138 4.8 4.8 0.00 0.00 0.00 70 1016.0
20260505061040 13 154 0.0 3.2 0.00 0.00 0.00 72 1015.9
20260505060539 13 238 0.0 3.2 0.00 0.00 0.00 71 1015.9
20260505060040 12 242 0.0 3.2 0.00 0.00 0.00 71 1015.9
20260505055439 12 236 1.6 4.8 0.00 0.00 0.00 72 1015.9
20260505055042 12 250 1.6 4.8 0.00 0.00 0.00 72 1016.0
20260505054339 12 253 1.6 4.8 0.00 0.00 0.00 72 1016.0
20260505054040 12 259 4.8 6.4 0.00 0.00 0.00 72 1016.0
20260505053239 12 236 3.2 6.4 0.00 0.00 0.00 70 1016.0
20260505053040 12 257 3.2 6.4 0.00 0.00 0.00 70 1015.9
20260505052139 12 171 0.0 4.8 0.00 0.00 0.00 67 1015.7
20260505052041 12 156 1.6 4.8 0.00 0.00 0.00 67 1015.6
20260505051039 12 267 1.6 4.8 0.00 0.00 0.00 67 1015.6
20260505041540 14 159 8.0 11.3 0.00 0.00 0.00 58 1015.4
20260505041041 14 154 4.8 11.3 0.00 0.00 0.00 58 1015.4
20260505040440 13 182 1.6 8.0 0.00 0.00 0.00 59 1015.4
20260505040041 14 153 3.2 9.7 0.00 0.00 0.00 59 1015.4
20260505035340 14 149 4.8 8.0 0.00 0.00 0.00 58 1015.4
20260505035041 14 142 1.6 6.4 0.00 0.00 0.00 58 1015.4
20260505034240 15 159 1.6 11.3 0.00 0.00 0.00 56 1015.4
20260505034042 15 164 1.6 12.9 0.00 0.00 0.00 55 1015.3
20260505033140 15 128 4.8 12.9 0.00 0.00 0.00 55 1015.2
20260505033041 15 133 12.9 12.9 0.00 0.00 0.00 56 1015.3
20260505032040 14 133 1.6 8.0 0.00 0.00 0.00 57 1015.3
20260505031041 14 145 1.6 6.4 0.00 0.00 0.00 57 1015.3
20260505030940 14 134 1.6 8.0 0.00 0.00 0.00 57 1015.3
20260505030045 15 138 1.6 8.0 0.00 0.00 0.00 56 1015.3
20260505025840 15 132 0.0 8.0 0.00 0.00 0.00 56 1015.4
20260505025042 15 128 1.6 4.8 0.00 0.00 0.00 56 1015.4
20260505024740 15 86 3.2 6.4 0.00 0.00 0.00 56 1015.4
20260505024041 14 84 3.2 6.4 0.00 0.00 0.00 57 1015.4
20260505023640 14 90 3.2 9.7 0.00 0.00 0.00 57 1015.5
20260505023041 14 92 4.8 9.7 0.00 0.00 0.00 57 1015.5
20260505022540 14 88 4.8 9.7 0.00 0.00 0.00 57 1015.5
20260505022041 14 90 4.8 8.0 0.00 0.00 0.00 57 1015.5
20260505021440 14 92 4.8 9.7 0.00 0.00 0.00 57 1015.5
20260505021040 14 80 4.8 8.0 0.00 0.00 0.00 57 1015.6
20260505020340 14 93 3.2 6.4 0.00 0.00 0.00 57 1015.8
20260505020040 14 93 3.2 6.4 0.00 0.00 0.00 57 1015.8
20260505015240 14 96 1.6 6.4 0.00 0.00 0.00 57 1015.7
20260505015041 15 89 4.8 6.4 0.00 0.00 0.00 57 1015.7
20260505014139 14 79 4.8 9.7 0.00 0.00 0.00 57 1015.7
20260505014040 14 80 4.8 11.3 0.00 0.00 0.00 57 1015.6
20260505013051 14 82 6.4 9.7 0.00 0.00 0.00 57 1015.8
20260505012041 14 92 4.8 8.0 0.00 0.00 0.00 57 1015.8
20260505011043 14 78 4.8 9.7 0.00 0.00 0.00 57 1015.9
20260505010941 14 82 6.4 9.7 0.00 0.00 0.00 57 1015.8
20260505010042 14 93 9.7 11.3 0.00 0.00 0.00 57 1015.8
20260505005841 14 86 8.0 11.3 0.00 0.00 0.00 57 1015.8
20260505005044 14 76 8.0 8.0 0.00 0.00 0.00 57 1015.8
20260505004741 14 81 6.4 8.0 0.00 0.00 0.00 56 1015.9
20260505004042 15 85 6.4 9.7 0.00 0.00 0.00 56 1016.0
20260505003641 15 86 4.8 9.7 0.00 0.00 0.00 56 1016.1
20260505003042 15 60 4.8 9.7 0.00 0.00 0.00 56 1016.1
20260505002541 15 92 3.2 8.0 0.00 0.00 0.00 56 1016.2
20260505002042 15 76 3.2 8.0 0.00 0.00 0.00 56 1016.3
20260505001441 15 132 1.6 8.0 0.00 0.00 0.00 56 1016.3
20260505001043 15 153 6.4 6.4 0.00 0.00 0.00 56 1016.4
20260505000343 15 135 0.0 4.8 0.00 0.00 0.00 56 1016.5
20260505000042 15 129 1.6 8.0 0.00 0.00 0.00 56 1016.4
20260504235241 15 142 8.0 8.0 0.00 0.00 0.00 56 1016.5
20260504235043 15 130 1.6 8.0 0.00 0.00 0.00 56 1016.4
20260504234141 15 85 4.8 6.4 0.00 0.00 0.00 56 1016.4
20260504234043 15 136 4.8 6.4 0.00 0.00 0.00 57 1016.5
20260504233041 15 90 3.2 6.4 0.00 0.00 0.00 56 1016.6
20260504232043 15 80 4.8 8.0 0.00 0.00 0.00 56 1016.6
20260504231941 15 80 1.6 8.0 0.00 0.00 0.00 56 1016.6
20260504231042 15 92 3.2 6.4 0.00 0.00 0.00 56 1016.6
20260504230841 15 92 3.2 6.4 0.00 0.00 0.00 56 1016.7
20260504230042 15 93 3.2 6.4 0.00 0.00 0.00 55 1016.8
20260504225741 15 104 1.6 6.4 0.00 0.00 0.00 55 1016.9
20260504225042 15 89 3.2 4.8 0.00 0.00 0.00 55 1016.8
20260504224641 15 93 3.2 4.8 0.00 0.00 0.00 55 1016.9
20260504224043 15 98 1.6 4.8 0.00 0.00 0.00 54 1016.9
20260504223541 15 88 3.2 4.8 0.00 0.00 0.00 54 1016.9
20260504223042 16 142 0.0 3.2 0.00 0.00 0.00 53 1016.9
20260504222441 16 145 0.0 6.4 0.00 0.00 0.00 53 1016.9
20260504222043 16 136 3.2 6.4 0.00 0.00 0.00 52 1017.0
20260504221341 16 142 6.4 9.7 0.00 0.00 0.00 53 1017.0
20260504221042 16 157 8.0 9.7 0.00 0.00 0.00 53 1017.1
20260504220241 16 145 1.6 8.0 0.00 0.00 0.00 53 1017.1
20260504220043 16 148 1.6 8.0 0.00 0.00 0.00 53 1017.1
20260504215141 16 153 3.2 8.0 0.00 0.00 0.00 52 1017.0
20260504215043 16 162 6.4 8.0 0.00 0.00 0.00 52 1017.0
20260504214041 16 134 4.8 8.0 0.00 0.00 0.00 52 1017.0
20260504213044 16 139 6.4 11.3 0.00 0.00 0.00 51 1016.9
20260504212941 16 131 4.8 11.3 0.00 0.00 0.00 51 1016.9
20260504212044 16 129 3.2 12.9 0.00 0.00 0.00 50 1016.9
20260504211841 16 154 6.4 12.9 0.00 0.00 0.00 50 1016.9
20260504211043 16 134 6.4 12.9 0.00 0.00 0.00 50 1017.0
20260504210741 16 146 4.8 12.9 0.00 0.00 0.00 50 1016.9
20260504210042 16 144 8.0 9.7 0.00 0.00 0.00 50 1017.0
20260504205641 16 169 0.0 8.0 0.00 0.00 0.00 50 1017.0
20260504205046 16 117 4.8 6.4 0.00 0.00 0.00 49 1017.0
20260504204541 16 94 0.0 6.4 0.00 0.00 0.00 49 1017.1
20260504204042 16 94 1.6 6.4 0.00 0.00 0.00 49 1017.0
20260504203441 16 95 4.8 9.7 0.00 0.00 0.00 49 1017.0
20260504202341 16 85 4.8 11.3 0.00 0.00 0.00 49 1017.0
20260504202045 17 93 3.2 12.9 0.00 0.00 0.00 49 1017.0
20260504201242 17 84 8.0 11.3 0.00 0.00 0.00 49 1017.0
20260504201043 17 82 8.0 11.3 0.00 0.00 0.00 49 1017.0
20260504200142 17 81 8.0 11.3 0.00 0.00 0.00 48 1017.0
20260504200043 17 90 6.4 11.3 0.00 0.00 0.00 48 1017.0
20260504195042 17 77 8.0 12.9 0.00 0.00 0.00 48 1017.1
20260504194044 17 75 6.4 9.7 0.00 0.00 0.00 48 1017.2
20260504193942 17 77 11.3 11.3 0.00 0.00 0.00 48 1017.1
20260504193043 17 91 6.4 11.3 0.00 0.00 0.00 48 1017.1
20260504192842 17 95 3.2 9.7 0.00 0.00 0.00 48 1017.1
20260504192043 17 91 4.8 8.0 0.00 0.00 0.00 48 1017.1
20260504191742 17 74 4.8 9.7 0.00 0.00 0.00 48 1017.2
20260504191043 17 92 4.8 6.4 0.00 0.00 0.00 48 1017.1
20260504190642 18 96 4.8 6.4 0.00 0.00 0.00 49 1017.1
20260504190043 18 94 4.8 6.4 0.00 0.00 0.00 48 1017.1
20260504185542 18 88 3.2 6.4 0.00 0.00 0.00 49 1017.1
20260504185043 18 90 4.8 6.4 0.00 0.00 0.00 49 1017.1
20260504184442 18 88 4.8 6.4 0.00 0.00 0.00 49 1017.1
20260504184043 18 95 4.8 6.4 0.00 0.00 0.00 49 1017.0
20260504183342 18 96 4.8 9.7 0.00 0.00 0.00 49 1016.9
20260504183043 18 85 6.4 9.7 0.00 0.00 0.00 49 1016.9
20260504182242 19 90 4.8 9.7 0.00 0.00 0.00 49 1016.9
20260504182043 19 91 4.8 9.7 0.00 0.00 0.00 49 1016.9
20260504181142 19 88 4.8 9.7 0.00 0.00 0.00 48 1016.9
20260504181043 19 90 4.8 9.7 0.00 0.00 0.00 48 1016.9
20260504180041 20 89 3.2 6.4 0.00 0.00 0.00 47 1016.8
20260504175043 20 90 3.2 4.8 0.00 0.00 0.00 47 1016.9
20260504174941 20 89 3.2 4.8 0.00 0.00 0.00 46 1016.9
20260504174042 21 148 1.6 3.2 0.00 0.00 0.00 46 1016.9
20260504173841 21 148 1.6 3.2 0.00 0.00 0.00 46 1016.8
20260504173043 21 148 1.6 3.2 0.00 0.00 0.00 45 1016.7
20260504172741 21 148 1.6 3.2 0.00 0.00 0.00 45 1016.7
20260504172043 21 109 1.6 3.2 0.00 0.00 0.00 45 1016.7
20260504171641 21 109 1.6 3.2 0.00 0.00 0.00 44 1016.6
20260504171043 21 109 0.0 3.2 0.00 0.00 0.00 43 1016.5
20260504170541 21 109 1.6 3.2 0.00 0.00 0.00 43 1016.8
20260504151043 23 60 0.0 9.7 0.00 0.00 0.00 38 1017.2
20260504150441 23 48 3.2 14.5 0.00 0.00 0.00 37 1017.3
20260504141044 24 177 0.0 14.5 0.00 0.00 0.00 40 1017.6
20260504140941 24 159 8.0 14.5 0.00 0.00 0.00 40 1017.5
20260504130341 24 273 9.7 16.1 0.00 0.00 0.00 41 1018.5
20260504110241 23 156 1.6 6.4 0.00 0.00 0.00 40 1019.9
20260504090142 21 143 3.2 6.4 0.00 0.00 0.00 46 1021.0
20260504081742 20 53 1.6 9.7 0.00 0.00 0.00 46 1021.1
20260504081042 19 179 0.0 8.0 0.00 0.00 0.00 51 1021.0
20260504080641 19 144 4.8 8.0 0.00 0.00 0.00 49 1020.9